,,PA_Meas_PMT16A,,PR_Meas_QMR101_102,,RH_Meas_QMH101,,SR_Meas_QMS101,,TA_Meas_QMH101,,GenWind,,GenWind,
time,status,PA,status,PR,status,RH,status,SR,status,TA,status,DirAvg,status,SpdAvg,
2016-04-21, 07:15:04,VALID,917.989,VALID,0,INVALID,109.411,VALID,98.7384,VALID,21.5168,VALID,134,VALID,0,
2016-04-21, 07:16:04,VALID,918.022,VALID,0,INVALID,109.526,VALID,103.358,VALID,21.5754,VALID,134,VALID,0,
2016-04-21, 07:19:04,VALID,918.043,VALID,0,INVALID,110.014,VALID,98.2012,VALID,21.6534,VALID,134,VALID,0,
2016-04-21, 07:20:04,VALID,918.076,VALID,0,INVALID,110.204,VALID,117.326,VALID,21.712,VALID,132,VALID,0,
2016-04-21, 07:21:04,VALID,918.078,VALID,0,INVALID,110.456,VALID,123.665,VALID,21.7315,VALID,132,VALID,0,
2016-04-21, 07:22:04,VALID,918.138,VALID,0,INVALID,110.684,VALID,136.558,VALID,21.79,VALID,125,VALID,0,
2016-04-21, 07:23:04,VALID,918.161,VALID,0,INVALID,110.883,VALID,140.426,VALID,21.9266,VALID,125,VALID,0,
2016-04-21, 07:24:04,VALID,918.212,VALID,0,INVALID,111.157,VALID,142.252,VALID,21.9656,VALID,125,VALID,0,
2016-04-21, 07:25:04,VALID,918.248,VALID,0,INVALID,111.409,VALID,144.508,VALID,22.0437,VALID,125,VALID,0,
2016-04-21, 07:26:04,VALID,918.257,VALID,0,INVALID,111.63,VALID,148.269,VALID,22.1022,VALID,119,VALID,0,
2016-04-21, 07:27:04,VALID,918.286,VALID,0,INVALID,111.691,VALID,152.996,VALID,22.1608,VALID,118,VALID,0,
2016-04-21, 07:28:04,VALID,918.308,VALID,0,INVALID,111.492,VALID,159.228,VALID,22.2388,VALID,80,VALID,0,
2016-04-21, 07:29:04,VALID,918.306,VALID,0,INVALID,111.066,VALID,159.12,VALID,22.3559,VALID,80,VALID,0,
2016-04-21, 07:30:04,VALID,918.306,VALID,0,INVALID,110.601,VALID,146.335,VALID,22.473,VALID,80,VALID,0,
2016-04-21, 07:31:04,VALID,918.311,VALID,0,INVALID,110.113,VALID,153.104,VALID,22.6096,VALID,80,VALID,0,
2016-04-21, 07:32:04,VALID,918.322,VALID,0,VALID,104,VALID,150.847,VALID,22.6274,VALID,80,VALID,0,
2016-04-21, 07:33:04,VALID,918.316,VALID,0,VALID,104,VALID,113.028,VALID,22.5494,VALID,80,VALID,0,
2016-04-21, 07:34:04,VALID,918.295,VALID,0,VALID,104,VALID,113.78,VALID,22.4145,VALID,80,VALID,0,
2016-04-21, 07:35:04,VALID,918.294,VALID,0,INVALID,109.167,VALID,118.508,VALID,22.3754,VALID,80,VALID,0,
2016-04-21, 07:36:04,VALID,918.294,VALID,0,INVALID,109.579,VALID,133.872,VALID,22.3967,VALID,80,VALID,0,
2016-04-21, 07:40:04,VALID,918.286,VALID,0,INVALID,109.053,VALID,137.74,VALID,22.4535,VALID,80,VALID,0,
2016-04-21, 07:41:04,VALID,918.231,VALID,0,INVALID,109.274,VALID,151.385,VALID,22.4145,VALID,80,VALID,0,
2016-04-21, 07:42:04,VALID,918.254,VALID,0,INVALID,109.129,VALID,198.229,VALID,22.3542,VALID,80,VALID,0,
2016-04-21, 07:43:04,VALID,918.243,VALID,0,VALID,104,VALID,209.51,VALID,22.3347,VALID,80,VALID,0,
2016-04-21, 07:44:04,VALID,918.255,VALID,0,INVALID,109.282,VALID,211.659,VALID,22.4323,VALID,80,VALID,0,
2016-04-21, 07:45:04,VALID,918.237,VALID,0,INVALID,109.32,VALID,211.444,VALID,22.6079,VALID,80,VALID,0,
2016-04-21, 07:46:04,VALID,918.24,VALID,0,VALID,104,VALID,220.577,VALID,22.7836,VALID,80,VALID,0,
2016-04-21, 07:47:04,VALID,918.254,VALID,0,VALID,104,VALID,217.139,VALID,22.9592,VALID,80,VALID,0,
2016-04-21, 07:48:04,VALID,918.25,VALID,0,VALID,104,VALID,227.023,VALID,23.1349,VALID,80,VALID,0,
2016-04-21, 07:49:04,VALID,918.268,VALID,0,VALID,104,VALID,245.181,VALID,23.2112,VALID,80,VALID,0,
2016-04-21, 07:50:04,VALID,918.275,VALID,0,VALID,104,VALID,247.115,VALID,23.2911,VALID,80,VALID,0,
2016-04-21, 07:51:04,VALID,918.303,VALID,0,VALID,104,VALID,151.492,VALID,23.4472,VALID,80,VALID,0,
2016-04-21, 07:52:04,VALID,918.303,VALID,0,VALID,103.671,VALID,147.839,VALID,23.5253,VALID,93,VALID,0,
2016-04-21, 07:53:04,VALID,918.326,VALID,0,VALID,103.717,VALID,154.071,VALID,23.4667,VALID,116,VALID,0,
2016-04-21, 07:54:04,VALID,918.316,VALID,0,VALID,103.495,VALID,267.743,VALID,23.3496,VALID,96,VALID,0,
2016-04-21, 07:55:04,VALID,918.309,VALID,0,VALID,104,VALID,279.669,VALID,23.3106,VALID,96,VALID,0,
2016-04-21, 07:56:04,VALID,918.308,VALID,0,VALID,104,VALID,258.611,VALID,23.3496,VALID,121,VALID,0,
2016-04-21, 07:57:04,VALID,918.306,VALID,0,VALID,104,VALID,258.396,VALID,23.4064,VALID,108,VALID,0,
2016-04-21, 07:58:04,VALID,918.277,VALID,0,VALID,104,VALID,256.999,VALID,23.4845,VALID,150,VALID,0,
2016-04-21, 07:59:04,VALID,918.28,VALID,0,VALID,104,VALID,240.453,VALID,23.5253,VALID,122,VALID,0,
2016-04-21, 08:00:04,VALID,918.304,VALID,0,VALID,102.764,VALID,199.088,VALID,23.5253,VALID,123,VALID,0,
2016-04-21, 08:01:04,VALID,918.351,VALID,0,VALID,103.579,VALID,252.916,VALID,23.6016,VALID,123,VALID,0,
2016-04-21, 08:02:04,VALID,918.358,VALID,0,VALID,104,VALID,225.519,VALID,23.6406,VALID,135,VALID,0,
2016-04-21, 08:03:04,VALID,918.4,VALID,0,VALID,104,VALID,230.676,VALID,23.6406,VALID,186,VALID,0,
2016-04-21, 08:04:04,VALID,918.409,VALID,0,VALID,104,VALID,248.726,VALID,23.6602,VALID,180,VALID,0,
2016-04-21, 08:05:04,VALID,918.444,VALID,0,VALID,104,VALID,248.189,VALID,23.6992,VALID,176,VALID,0,
2016-04-21, 08:06:04,VALID,918.416,VALID,0,VALID,102.764,VALID,249.156,VALID,23.6602,VALID,180,VALID,0.418359,
2016-04-21, 08:07:04,VALID,918.415,VALID,0,VALID,103.381,VALID,235.833,VALID,23.6602,VALID,188,VALID,0,
2016-04-21, 08:08:04,VALID,918.386,VALID,0,VALID,103.16,VALID,225.519,VALID,23.6602,VALID,186,VALID,0,
2016-04-21, 08:09:04,VALID,918.374,VALID,0,VALID,103.701,VALID,219.395,VALID,23.5821,VALID,167,VALID,0,
2016-04-21, 08:10:04,VALID,918.344,VALID,0,VALID,104,VALID,217.461,VALID,23.5058,VALID,145,VALID,0,
2016-04-21, 08:11:04,VALID,918.311,VALID,0,VALID,104,VALID,223.155,VALID,23.5448,VALID,173,VALID,0,
2016-04-21, 08:12:04,VALID,918.321,VALID,0,VALID,104,VALID,244.536,VALID,23.5643,VALID,169,VALID,0,
2016-04-21, 08:13:04,VALID,918.297,VALID,0,VALID,103.541,VALID,247.867,VALID,23.5253,VALID,160,VALID,0,
2016-04-21, 08:14:04,VALID,918.327,VALID,0,VALID,104,VALID,232.18,VALID,23.4064,VALID,151,VALID,0,
2016-04-21, 08:15:04,VALID,918.3,VALID,0,VALID,104,VALID,208.114,VALID,23.4277,VALID,163,VALID,0,
2016-04-21, 08:16:04,VALID,918.299,VALID,0,VALID,104,VALID,200.055,VALID,23.3869,VALID,156,VALID,0,
2016-04-21, 08:17:04,VALID,918.333,VALID,0,VALID,104,VALID,204.998,VALID,23.4064,VALID,154,VALID,0,
2016-04-21, 08:18:04,VALID,918.294,VALID,0,VALID,104,VALID,206.932,VALID,23.3088,VALID,152,VALID,0,
2016-04-21, 08:19:04,VALID,918.298,VALID,0,VALID,104,VALID,213.271,VALID,23.3301,VALID,175,VALID,0,
2016-04-21, 08:20:04,VALID,918.308,VALID,0,VALID,104,VALID,241.85,VALID,23.3461,VALID,174,VALID,0,
2016-04-21, 08:21:04,VALID,918.309,VALID,0,VALID,104,VALID,238.627,VALID,23.4632,VALID,161,VALID,0,
2016-04-21, 08:22:04,VALID,918.276,VALID,0,VALID,103.511,VALID,240.131,VALID,23.5608,VALID,151,VALID,0,
2016-04-21, 08:23:04,VALID,918.257,VALID,0,VALID,103.709,VALID,228.098,VALID,23.6193,VALID,149,VALID,0,
2016-04-21, 08:24:04,VALID,918.277,VALID,0,VALID,103.907,VALID,233.899,VALID,23.5998,VALID,171,VALID,0,
2016-04-21, 08:25:04,VALID,918.248,VALID,0,VALID,104,VALID,248.726,VALID,23.6406,VALID,167,VALID,0,
2016-04-21, 08:26:04,VALID,918.276,VALID,0,VALID,104,VALID,256.247,VALID,23.7187,VALID,167,VALID,0,
2016-04-21, 08:27:04,VALID,918.282,VALID,0,VALID,104,VALID,267.206,VALID,23.8163,VALID,156,VALID,0,
2016-04-21, 08:28:04,VALID,918.3,VALID,0,VALID,104,VALID,304.811,VALID,23.953,VALID,140,VALID,0,
2016-04-21, 08:29:04,VALID,918.297,VALID,0,VALID,103.023,VALID,305.992,VALID,24.0701,VALID,110,VALID,0,
2016-04-21, 08:30:04,VALID,918.306,VALID,0,VALID,102.39,VALID,374.218,VALID,24.2263,VALID,115,VALID,0,
2016-04-21, 08:31:04,VALID,918.34,VALID,0,VALID,102.062,VALID,366.374,VALID,24.3825,VALID,145,VALID,0,
2016-04-21, 08:32:04,VALID,918.377,VALID,0,VALID,98.2277,VALID,363.366,VALID,24.363,VALID,156,VALID,0,
2016-04-21, 08:33:04,VALID,918.39,VALID,0,VALID,100.095,VALID,347.357,VALID,24.402,VALID,133,VALID,0,
2016-04-21, 08:34:04,VALID,918.376,VALID,0,VALID,95.4757,VALID,321.249,VALID,24.4801,VALID,167,VALID,0,
2016-04-21, 08:35:04,VALID,918.382,VALID,0,VALID,91.8774,VALID,305.133,VALID,24.4002,VALID,144,VALID,0,
2016-04-21, 08:36:04,VALID,918.425,VALID,0,VALID,98.8681,VALID,298.042,VALID,24.283,VALID,161,VALID,0,
2016-04-21, 08:37:04,VALID,918.426,VALID,0,VALID,96.5048,VALID,329.307,VALID,24.1073,VALID,141,VALID,0,
2016-04-21, 08:38:04,VALID,918.434,VALID,0,VALID,99.7295,VALID,298.794,VALID,23.9902,VALID,141,VALID,0,
2016-04-21, 08:39:04,VALID,918.449,VALID,0,VALID,100.583,VALID,284.074,VALID,23.9121,VALID,147,VALID,0,
2016-04-21, 08:40:04,VALID,918.453,VALID,0,VALID,99.4017,VALID,224.122,VALID,23.8554,VALID,148,VALID,0,
2016-04-21, 08:41:04,VALID,918.455,VALID,0,VALID,101.841,VALID,210.262,VALID,23.8536,VALID,141,VALID,0,
2016-04-21, 08:42:04,VALID,918.457,VALID,0,VALID,101.102,VALID,225.734,VALID,23.834,VALID,144,VALID,0,
2016-04-21, 08:43:04,VALID,918.477,VALID,0,VALID,102.398,VALID,235.404,VALID,23.8358,VALID,138,VALID,0,
2016-04-21, 08:44:04,VALID,918.487,VALID,0,VALID,99.699,VALID,264.198,VALID,23.834,VALID,163,VALID,0,
2016-04-21, 08:45:04,VALID,918.488,VALID,0,VALID,102.017,VALID,300.083,VALID,23.9121,VALID,154,VALID,0,
2016-04-21, 08:46:04,VALID,918.537,VALID,0,VALID,91.7554,VALID,328.877,VALID,23.8926,VALID,145,VALID,0.0289063,
2016-04-21, 08:47:04,VALID,918.542,VALID,0,VALID,99.2493,VALID,318.778,VALID,23.9512,VALID,185,VALID,0,
2016-04-21, 08:48:04,VALID,918.56,VALID,0,VALID,93.8214,VALID,313.084,VALID,24.0292,VALID,164,VALID,0,
2016-04-21, 08:49:04,VALID,918.564,VALID,0,VALID,97.0232,VALID,314.48,VALID,24.0878,VALID,148,VALID,0,
2016-04-21, 08:50:04,VALID,918.566,VALID,0,VALID,96.5429,VALID,315.34,VALID,24.2245,VALID,164,VALID,0,
2016-04-21, 08:51:04,VALID,918.583,VALID,0,VALID,92.0451,VALID,281.818,VALID,24.2635,VALID,138,VALID,0,
2016-04-21, 08:52:04,VALID,918.603,VALID,0,VALID,90.5204,VALID,337.473,VALID,24.3611,VALID,143,VALID,0,
2016-04-21, 08:53:04,VALID,918.612,VALID,0,VALID,86.0455,VALID,276.554,VALID,24.4002,VALID,184,VALID,0,
2016-04-21, 08:54:04,VALID,918.609,VALID,0,VALID,81.6925,VALID,336.183,VALID,24.4002,VALID,158,VALID,0,
2016-04-21, 08:55:04,VALID,918.589,VALID,0,VALID,82.4701,VALID,357.457,VALID,24.535,VALID,158,VALID,0,
2016-04-21, 08:56:04,VALID,918.607,VALID,0,VALID,84.6657,VALID,329.2,VALID,24.6716,VALID,178,VALID,0,
2016-04-21, 08:57:04,VALID,918.648,VALID,0,VALID,81.8374,VALID,350.473,VALID,24.8688,VALID,176,VALID,0,
2016-04-21, 08:58:04,VALID,918.654,VALID,0,VALID,80.6481,VALID,366.159,VALID,24.8688,VALID,162,VALID,0,
2016-04-21, 08:59:04,VALID,918.661,VALID,0,VALID,80.3889,VALID,381.846,VALID,24.9097,VALID,152,VALID,0,
2016-04-21, 09:00:04,VALID,918.687,VALID,0,VALID,80.6634,VALID,392.053,VALID,24.8316,VALID,157,VALID,0,
2016-04-21, 09:01:04,VALID,918.708,VALID,0,VALID,81.3723,VALID,427.938,VALID,24.8492,VALID,141,VALID,0,
2016-04-21, 09:02:04,VALID,918.709,VALID,0,VALID,79.8248,VALID,399.896,VALID,24.8492,VALID,126,VALID,0,
2016-04-21, 09:03:04,VALID,918.711,VALID,0,VALID,80.7091,VALID,356.597,VALID,24.9274,VALID,127,VALID,0.199219,
2016-04-21, 09:04:04,VALID,918.732,VALID,0,VALID,80.7472,VALID,292.025,VALID,24.9274,VALID,116,VALID,0,
2016-04-21, 09:05:04,VALID,918.765,VALID,0,VALID,80.5185,VALID,263.661,VALID,25.0445,VALID,112,VALID,0,
2016-04-21, 09:06:04,VALID,918.735,VALID,0,VALID,79.1539,VALID,294.496,VALID,25.2203,VALID,113,VALID,0,
2016-04-21, 09:07:04,VALID,918.778,VALID,0,VALID,77.4539,VALID,301.05,VALID,25.3765,VALID,154,VALID,0,
2016-04-21, 09:08:04,VALID,918.773,VALID,0,VALID,76.905,VALID,334.572,VALID,25.357,VALID,153,VALID,0,
2016-04-21, 09:09:04,VALID,918.783,VALID,0,VALID,78.3535,VALID,368.416,VALID,25.3179,VALID,126,VALID,0,
2016-04-21, 09:10:04,VALID,918.792,VALID,0,VALID,77.675,VALID,418.806,VALID,25.1422,VALID,111,VALID,0,
2016-04-21, 09:11:04,VALID,918.807,VALID,0,VALID,76.8059,VALID,400.218,VALID,25.025,VALID,140,VALID,0.385938,
2016-04-21, 09:12:04,VALID,918.795,VALID,0,VALID,77.088,VALID,363.903,VALID,24.984,VALID,152,VALID,0,
2016-04-21, 09:13:04,VALID,918.798,VALID,0,VALID,77.431,VALID,361.862,VALID,25.0055,VALID,150,VALID,0,
2016-04-21, 09:14:04,VALID,918.807,VALID,0,VALID,76.7983,VALID,429.335,VALID,25.0426,VALID,161,VALID,0,
2016-04-21, 09:15:04,VALID,918.808,VALID,0,VALID,76.9889,VALID,406.987,VALID,25.1422,VALID,148,VALID,0,
2016-04-21, 09:16:04,VALID,918.804,VALID,0,VALID,76.8288,VALID,476.179,VALID,25.357,VALID,148,VALID,0,
2016-04-21, 09:17:04,VALID,918.807,VALID,0,VALID,78.201,VALID,434.385,VALID,25.3746,VALID,88,VALID,0,
2016-04-21, 09:18:04,VALID,918.801,VALID,0,VALID,77.2633,VALID,387.863,VALID,25.3765,VALID,107,VALID,0,
2016-04-21, 09:19:04,VALID,918.817,VALID,0,VALID,75.5785,VALID,402.797,VALID,25.2574,VALID,150,VALID,0.212109,
2016-04-21, 09:20:04,VALID,918.824,VALID,0,VALID,76.6001,VALID,342.093,VALID,25.1207,VALID,142,VALID,0,
2016-04-21, 09:21:04,VALID,918.8,VALID,0,VALID,78.8109,VALID,266.669,VALID,25.1012,VALID,106,VALID,0,
2016-04-21, 09:22:04,VALID,918.8,VALID,0,VALID,78.9176,VALID,246.47,VALID,25.1226,VALID,74,VALID,0.221875,
2016-04-21, 09:23:04,VALID,918.813,VALID,0,VALID,78.1934,VALID,303.199,VALID,25.0036,VALID,69,VALID,0,
2016-04-21, 09:24:04,VALID,918.827,VALID,0,VALID,80.549,VALID,347.357,VALID,24.9059,VALID,40,VALID,0.260156,
2016-04-21, 09:25:04,VALID,918.803,VALID,0,VALID,77.8884,VALID,362.721,VALID,24.8864,VALID,50,VALID,0,
2016-04-21, 09:26:04,VALID,918.823,VALID,0,VALID,78.4373,VALID,369.812,VALID,24.9645,VALID,50,VALID,0,
2016-04-21, 09:27:04,VALID,918.82,VALID,0,VALID,80.5109,VALID,360.787,VALID,25.1207,VALID,51,VALID,0,
2016-04-21, 09:28:04,VALID,918.809,VALID,0,VALID,78.0485,VALID,379.052,VALID,25.1988,VALID,79,VALID,0,
2016-04-21, 09:29:04,VALID,918.819,VALID,0,VALID,77.5606,VALID,486.923,VALID,25.2984,VALID,91,VALID,0,
2016-04-21, 09:30:04,VALID,918.877,VALID,0,VALID,75.9063,VALID,413.648,VALID,25.3141,VALID,107,VALID,0,
2016-04-21, 09:31:04,VALID,918.842,VALID,0,VALID,74.5036,VALID,424.178,VALID,25.3746,VALID,110,VALID,0,
2016-04-21, 09:32:04,VALID,918.852,VALID,0,VALID,75.8987,VALID,412.896,VALID,25.5113,VALID,97,VALID,0,
2016-04-21, 09:33:04,VALID,918.858,VALID,0,VALID,76.1579,VALID,406.987,VALID,25.687,VALID,73,VALID,0,
2016-04-21, 09:34:04,VALID,918.871,VALID,0,VALID,77.9113,VALID,454.154,VALID,25.7261,VALID,61,VALID,0,
2016-04-21, 09:35:04,VALID,918.856,VALID,0,VALID,77.3243,VALID,496.7,VALID,25.9019,VALID,15,VALID,0,
2016-04-21, 09:36:04,VALID,918.902,VALID,0,VALID,75.5785,VALID,501.106,VALID,26.1342,VALID,15,VALID,0,
2016-04-21, 09:37:04,VALID,918.899,VALID,0,VALID,75.7005,VALID,545.801,VALID,26.2534,VALID,15,VALID,0,
2016-04-21, 09:38:04,VALID,918.931,VALID,0,VALID,71.9041,VALID,549.454,VALID,26.1753,VALID,15,VALID,0,
2016-04-21, 09:39:04,VALID,918.937,VALID,0,VALID,72.2319,VALID,593.72,VALID,26.2925,VALID,15,VALID,0,
2016-04-21, 09:40:04,VALID,918.983,VALID,0,VALID,72.3386,VALID,614.993,VALID,26.3316,VALID,78,VALID,0,
2016-04-21, 09:41:04,VALID,918.983,VALID,0,VALID,70.5623,VALID,640.242,VALID,26.3296,VALID,148,VALID,0,
2016-04-21, 09:42:04,VALID,918.973,VALID,0,VALID,69.3578,VALID,640.027,VALID,26.3882,VALID,148,VALID,0,
2016-04-21, 09:43:04,VALID,918.992,VALID,0,VALID,68.6336,VALID,619.828,VALID,26.7007,VALID,148,VALID,0,
2016-04-21, 09:44:04,VALID,919.044,VALID,0,VALID,68.5421,VALID,644.539,VALID,27.0719,VALID,163,VALID,0,
2016-04-21, 09:45:04,VALID,919.017,VALID,0,VALID,68.2143,VALID,632.076,VALID,26.9546,VALID,170,VALID,0,
2016-04-21, 09:46:04,VALID,919.037,VALID,0,VALID,69.556,VALID,597.695,VALID,26.9958,VALID,171,VALID,0,
2016-04-21, 09:47:04,VALID,919.067,VALID,0,VALID,69.7771,VALID,575.885,VALID,26.8179,VALID,154,VALID,0,
2016-04-21, 09:48:04,VALID,919.061,VALID,0,VALID,68.8928,VALID,519.693,VALID,26.6812,VALID,175,VALID,0.3875,
2016-04-21, 09:49:04,VALID,919.062,VALID,0,VALID,69.4341,VALID,478.758,VALID,26.6616,VALID,166,VALID,0.190625,
2016-04-21, 09:50:04,VALID,919.091,VALID,0,VALID,69.678,VALID,340.266,VALID,26.566,VALID,155,VALID,0.0777344,
2016-04-21, 09:51:04,VALID,919.074,VALID,0,VALID,68.8852,VALID,351.118,VALID,26.566,VALID,174,VALID,0,
2016-04-21, 09:52:04,VALID,919.093,VALID,0,VALID,67.5587,VALID,420.525,VALID,26.6441,VALID,174,VALID,0,
2016-04-21, 09:53:04,VALID,919.072,VALID,0,VALID,67.3453,VALID,417.301,VALID,26.7223,VALID,174,VALID,0,
2016-04-21, 09:54:04,VALID,919.064,VALID,0,VALID,67.7874,VALID,472.204,VALID,26.7613,VALID,174,VALID,0,
2016-04-21, 09:55:04,VALID,919.053,VALID,0,VALID,67.5587,VALID,454.369,VALID,26.8179,VALID,174,VALID,0,
2016-04-21, 09:56:04,VALID,919.062,VALID,0,VALID,68.3592,VALID,474.89,VALID,26.857,VALID,173,VALID,0,
2016-04-21, 09:57:04,VALID,919.057,VALID,0,VALID,67.5358,VALID,543.437,VALID,26.9546,VALID,137,VALID,0,
2016-04-21, 09:58:04,VALID,919.112,VALID,0,VALID,67.5511,VALID,602.96,VALID,26.9937,VALID,129,VALID,0,
2016-04-21, 09:59:04,VALID,919.094,VALID,0,VALID,69.0986,VALID,553.859,VALID,27.0132,VALID,129,VALID,0,
2016-04-21, 10:00:04,VALID,919.089,VALID,0,VALID,69.7238,VALID,590.174,VALID,26.7377,VALID,129,VALID,0,
2016-04-21, 10:01:04,VALID,919.096,VALID,0,VALID,68.4964,VALID,582.224,VALID,26.601,VALID,129,VALID,0,
2016-04-21, 10:02:04,VALID,919.076,VALID,0,VALID,68.7785,VALID,577.819,VALID,26.6812,VALID,129,VALID,0,
2016-04-21, 10:03:04,VALID,919.083,VALID,0,VALID,67.6121,VALID,546.661,VALID,26.7613,VALID,129,VALID,0,
2016-04-21, 10:04:04,VALID,919.078,VALID,0,VALID,68.0009,VALID,515.932,VALID,26.7593,VALID,129,VALID,0,
2016-04-21, 10:05:04,VALID,919.073,VALID,0,VALID,66.8192,VALID,530.652,VALID,26.8765,VALID,130,VALID,0,
2016-04-21, 10:06:04,VALID,919.041,VALID,0,VALID,68.3744,VALID,556.975,VALID,26.9742,VALID,129,VALID,0,
2016-04-21, 10:07:04,VALID,919.027,VALID,0,VALID,67.6349,VALID,550.421,VALID,27.1109,VALID,129,VALID,0,
2016-04-21, 10:08:04,VALID,919.024,VALID,0,VALID,66.7354,VALID,595.009,VALID,27.1695,VALID,32,VALID,0.966797,
2016-04-21, 10:09:04,VALID,919.026,VALID,0,VALID,67.8255,VALID,587.381,VALID,27.0348,VALID,39,VALID,1.04688,
2016-04-21, 10:10:04,VALID,919.031,VALID,0,VALID,66.1331,VALID,599.414,VALID,26.7398,VALID,61,VALID,1.94766,
2016-04-21, 10:11:04,VALID,919,VALID,0,VALID,69.4341,VALID,607.257,VALID,26.5249,VALID,51,VALID,0.0289063,
2016-04-21, 10:12:04,VALID,919.044,VALID,0,VALID,70.5623,VALID,653.35,VALID,26.4858,VALID,67,VALID,0.00273437,
2016-04-21, 10:13:04,VALID,919.044,VALID,0,VALID,71.6982,VALID,676.127,VALID,26.5249,VALID,87,VALID,0.08125,
2016-04-21, 10:14:04,VALID,919.052,VALID,0,VALID,70.791,VALID,705.351,VALID,26.6812,VALID,114,VALID,0,
2016-04-21, 10:15:04,VALID,919.064,VALID,0,VALID,70.7301,VALID,737.906,VALID,26.9546,VALID,59,VALID,0.557422,
2016-04-21, 10:16:04,VALID,919.028,VALID,0,VALID,68.0924,VALID,728.988,VALID,27.0328,VALID,36,VALID,0.373437,
2016-04-21, 10:17:04,VALID,919.053,VALID,0,VALID,67.4215,VALID,751.121,VALID,27.0719,VALID,58,VALID,0,
2016-04-21, 10:18:04,VALID,919.084,VALID,0,VALID,67.1394,VALID,727.054,VALID,27.0914,VALID,16,VALID,0,
2016-04-21, 10:19:04,VALID,919.112,VALID,0,VALID,65.2031,VALID,737.476,VALID,27.3042,VALID,12,VALID,0,
2016-04-21, 10:20:04,VALID,919.085,VALID,0,VALID,64.3645,VALID,748.865,VALID,27.5777,VALID,12,VALID,0,
2016-04-21, 10:21:04,VALID,919.106,VALID,0,VALID,63.564,VALID,753.915,VALID,27.9294,VALID,353,VALID,0,
2016-04-21, 10:22:04,VALID,919.136,VALID,0,VALID,62.3367,VALID,764.659,VALID,28.203,VALID,336,VALID,0,
2016-04-21, 10:23:04,VALID,919.112,VALID,0,VALID,60.2021,VALID,755.849,VALID,28.3789,VALID,182,VALID,0,
2016-04-21, 10:24:04,VALID,919.116,VALID,0,VALID,61.2999,VALID,741.344,VALID,28.1835,VALID,205,VALID,0,
2016-04-21, 10:25:04,VALID,919.166,VALID,0,VALID,61.4905,VALID,758.32,VALID,28.0488,VALID,170,VALID,0.146484,
2016-04-21, 10:26:04,VALID,919.14,VALID,0,VALID,62.8627,VALID,756.815,VALID,27.8143,VALID,169,VALID,0,
2016-04-21, 10:27:04,VALID,919.146,VALID,0,VALID,62.9008,VALID,777.014,VALID,27.912,VALID,169,VALID,0,
2016-04-21, 10:28:04,VALID,919.142,VALID,0,VALID,65.5538,VALID,468.658,VALID,27.9902,VALID,212,VALID,0,
2016-04-21, 10:29:04,VALID,919.143,VALID,0,VALID,67.4291,VALID,362.721,VALID,27.9902,VALID,270,VALID,0,
2016-04-21, 10:30:04,VALID,919.139,VALID,0,VALID,64.1053,VALID,337.15,VALID,27.5777,VALID,247,VALID,1.79648,
2016-04-21, 10:31:04,VALID,919.128,VALID,0,VALID,68.1762,VALID,323.613,VALID,27.2847,VALID,218,VALID,0.579687,
2016-04-21, 10:32:04,VALID,919.119,VALID,0,VALID,68.1686,VALID,309.108,VALID,27.0112,VALID,249,VALID,0.805469,
2016-04-21, 10:33:04,VALID,919.065,VALID,0,VALID,70.6767,VALID,293.959,VALID,26.7182,VALID,208,VALID,1.39531,
2016-04-21, 10:34:04,VALID,919.039,VALID,0,VALID,70.8901,VALID,282.463,VALID,26.6205,VALID,221,VALID,0.838281,
2016-04-21, 10:35:04,VALID,919.028,VALID,0,VALID,71.0197,VALID,277.521,VALID,26.601,VALID,214,VALID,0,
2016-04-21, 10:36:04,VALID,918.994,VALID,0,VALID,72.7579,VALID,273.653,VALID,26.601,VALID,227,VALID,0,
2016-04-21, 10:37:04,VALID,918.981,VALID,0,VALID,73.3678,VALID,267.636,VALID,26.4643,VALID,232,VALID,0.469531,
2016-04-21, 10:38:04,VALID,918.96,VALID,0,VALID,72.7045,VALID,262.586,VALID,26.3276,VALID,231,VALID,0,
2016-04-21, 10:39:04,VALID,918.93,VALID,0,VALID,74.3054,VALID,260.33,VALID,26.3471,VALID,243,VALID,0,
2016-04-21, 10:40:04,VALID,918.961,VALID,0,VALID,74.3664,VALID,262.801,VALID,26.4272,VALID,221,VALID,0,
2016-04-21, 10:41:04,VALID,918.954,VALID,0,VALID,72.2471,VALID,262.801,VALID,26.4858,VALID,210,VALID,0,
2016-04-21, 10:42:04,VALID,918.938,VALID,0,VALID,72.8799,VALID,260.867,VALID,26.5054,VALID,241,VALID,0,
2016-04-21, 10:43:04,VALID,918.953,VALID,0,VALID,72.979,VALID,258.074,VALID,26.3882,VALID,240,VALID,0,
2016-04-21, 10:44:04,VALID,918.961,VALID,0,VALID,72.552,VALID,253.131,VALID,26.271,VALID,240,VALID,0,
2016-04-21, 10:45:04,VALID,918.975,VALID,0,VALID,74.2521,VALID,248.297,VALID,26.2319,VALID,240,VALID,0,
2016-04-21, 10:46:04,VALID,918.979,VALID,0,VALID,74.6104,VALID,251.735,VALID,26.1928,VALID,240,VALID,0,
2016-04-21, 10:47:04,VALID,918.939,VALID,0,VALID,73.5812,VALID,255.173,VALID,26.0952,VALID,247,VALID,0,
2016-04-21, 10:48:04,VALID,918.965,VALID,0,VALID,73.7718,VALID,257.322,VALID,25.978,VALID,244,VALID,0,
2016-04-21, 10:49:04,VALID,918.954,VALID,0,VALID,74.2216,VALID,265.38,VALID,25.9604,VALID,244,VALID,0,
2016-04-21, 10:50:04,VALID,918.975,VALID,0,VALID,75.6014,VALID,277.413,VALID,26.019,VALID,243,VALID,0,
2016-04-21, 10:51:04,VALID,918.942,VALID,0,VALID,75.0602,VALID,341.555,VALID,26.1948,VALID,243,VALID,0,
2016-04-21, 10:52:04,VALID,918.951,VALID,0,VALID,72.9485,VALID,550.099,VALID,26.308,VALID,250,VALID,0,
2016-04-21, 10:53:04,VALID,918.917,VALID,0,VALID,73.97,VALID,763.907,VALID,26.4272,VALID,251,VALID,0,
2016-04-21, 10:54:04,VALID,918.881,VALID,0,VALID,71.2484,VALID,801.618,VALID,26.6226,VALID,244,VALID,0,
2016-04-21, 10:55:04,VALID,918.871,VALID,0,VALID,69.2282,VALID,831.595,VALID,26.7182,VALID,247,VALID,0,
2016-04-21, 10:56:04,VALID,918.856,VALID,0,VALID,67.391,VALID,685.26,VALID,26.8159,VALID,251,VALID,0,
2016-04-21, 10:57:04,VALID,918.854,VALID,0,VALID,66.3161,VALID,770.675,VALID,26.8159,VALID,282,VALID,0,
2016-04-21, 10:58:04,VALID,918.847,VALID,0,VALID,68.4964,VALID,762.94,VALID,26.896,VALID,281,VALID,0,
2016-04-21, 10:59:04,VALID,918.831,VALID,0,VALID,67.5435,VALID,768.419,VALID,26.9937,VALID,289,VALID,0,
2016-04-21, 11:00:04,VALID,918.815,VALID,0,VALID,68.969,VALID,774.651,VALID,27.1695,VALID,296,VALID,0,
2016-04-21, 11:01:04,VALID,918.789,VALID,0,VALID,67.574,VALID,779.486,VALID,27.4605,VALID,296,VALID,0,
2016-04-21, 11:02:04,VALID,918.768,VALID,0,VALID,65.813,VALID,777.874,VALID,27.7536,INVALID,360,VALID,0.153516,
2016-04-21, 11:03:04,VALID,918.741,VALID,0,VALID,65.043,VALID,772.502,VALID,27.8925,VALID,21,VALID,0.339453,
2016-04-21, 11:04:04,VALID,918.73,VALID,0,VALID,63.93,VALID,800.437,VALID,28.1053,VALID,359,VALID,0,
2016-04-21, 11:05:04,VALID,918.703,VALID,0,VALID,63.0228,VALID,833.314,VALID,28.3202,INVALID,360,VALID,0,
2016-04-21, 11:06:04,VALID,918.659,VALID,0,VALID,60.5452,VALID,844.487,VALID,28.3984,VALID,8,VALID,0.938281,